Probability
0 0 0 0 0 0 1 2 4 3 2 0 0 0 0 0 0 0 0 0 0 0 0 0 0 0 0 0 0 0 0 0 0 0 0 0 0 0 0 0 0 0 0
1 0 0 0 0 0 1 2 3 4 2 1 0 0 0 0 0 0 0 0 0 0 0 0 0 0 0 0 0 0 0 0 0 0 0 0 0 0 0 0 0 0 0
3 1 0 0 0 0 0 1 2 3 3 1 0 0 0 0 0 0 0 0 0 0 0 0 0 0 0 0 0 0 0 0 0 0 0 0 0 0 0 0 0 0 0
4 2 0 0 0 0 0 0 1 2 2 1 0 0 0 0 0 0 0 0 0 0 0 0 0 0 0 0 0 0 0 0 0 0 0 0 0 0 0 0 0 0 0
5 3 1 0 0 0 0 0 1 1 1 0 0 0 0 0 0 0 0 0 0 0 0 0 0 0 0 0 0 0 0 0 0 0 0 0 0 0 0 0 0 0 0
5 4 2 1 0 0 0 0 0 0 0 0 0 0 0 0 0 0 0 0 0 0 0 0 0 0 0 0 0 0 0 0 0 0 0 0 0 0 0 0 0 0 0
4 5 5 3 1 0 0 0 0 0 0 0 0 0 0 0 0 0 0 0 0 0 0 0 0 0 0 0 0 0 0 0 0 0 0 0 0 0 0 0 0 0 0
4 5 6 5 3 1 0 0 0 0 0 0 0 0 0 0 0 0 0 0 0 0 0 0 0 0 0 0 0 0 0 0 0 0 0 0 0 0 0 0 0 0 0
6 6 7 6 4 2 1 0 0 0 0 0 0 0 0 0 0 0 0 0 0 0 0 0 0 0 0 0 0 0 0 0 0 0 0 0 0 0 0 0 0 0 0
6 7 8 8 6 4 1 0 0 0 0 0 0 0 0 0 0 0 0 0 0 0 0 0 0 0 0 0 0 0 0 0 0 0 0 0 0 0 0 0 0 0 0
7 7 7 8 8 6 3 2 0 0 0 0 0 0 0 0 0 0 0 0 0 0 0 0 0 0 0 0 0 0 0 0 0 0 0 0 0 0 0 0 0 0 0
10 8 7 7 7 6 6 4 2 1 1 0 0 0 0 0 0 0 0 0 0 0 0 0 0 0 0 0 0 0 0 0 0 0 0 0 0 0 0 0 0 0 0
12 10 7 5 6 6 6 6 5 3 1 0 0 0 0 0 0 0 0 0 0 0 0 0 0 0 0 0 0 0 0 0 0 0 0 0 0 0 0 0 0 0 0
13 11 8 5 5 6 6 6 5 3 1 0 0 1 0 0 0 0 0 0 0 0 0 0 0 0 0 0 0 0 0 0 0 0 0 0 0 0 0 0 0 0 0
12 12 10 7 5 5 5 5 4 2 0 0 0 0 0 0 0 0 0 0 0 0 0 0 0 0 0 0 0 0 0 0 0 0 0 0 0 0 0 0 0 0 0
11 11 11 9 7 4 3 2 1 0 0 0 0 0 0 0 0 0 0 0 0 0 0 0 0 0 0 0 0 1 0 0 0 0 0 0 0 0 0 0 0 0 0
12 13 12 10 7 4 2 0 0 0 0 0 0 0 0 0 0 0 0 0 0 0 0 0 0 0 0 0 0 0 0 0 0 0 0 0 0 0 0 0 0 0 0
15 15 12 8 6 5 3 1 0 0 0 0 0 0 0 0 0 0 0 0 0 0 0 0 0 0 0 0 0 0 0 0 0 0 0 0 0 0 0 0 0 0 0
17 14 9 5 4 4 3 1 0 0 0 0 0 0 0 0 0 0 0 0 0 0 0 0 0 0 0 0 0 0 0 0 0 0 0 0 0 0 0 0 0 0 0
18 13 8 4 2 3 3 1 1 0 0 0 0 0 0 0 0 0 0 0 0 0 0 0 0 0 0 0 0 0 0 0 0 0 0 0 0 0 0 0 0 0 0
19 15 9 4 2 3 3 3 2 1 1 0 0 0 0 0 1 1 0 0 0 0 0 0 0 0 0 0 0 0 0 0 0 0 0 0 0 0 0 0 0 0 0
23 17 9 4 3 3 3 4 4 3 1 0 0 0 0 1 2 2 1 0 0 0 0 0 0 0 0 0 0 0 0 0 0 0 0 0 0 0 0 0 0 0 0
25 19 10 5 4 3 3 3 3 2 1 0 1 1 1 2 3 3 1 1 0 0 0 0 0 0 0 0 0 0 0 0 0 0 0 0 0 0 0 0 0 0 0
26 23 16 9 6 5 4 4 3 2 0 1 2 3 3 3 3 3 3 2 1 1 1 0 0 0 0 0 0 0 0 0 0 0 0 0 0 0 0 0 0 0 0
29 28 23 15 10 8 6 5 5 3 2 2 3 4 4 4 4 3 3 3 3 2 2 1 0 0 0 0 0 0 0 0 0 0 0 0 0 0 0 0 0 0 0
31 32 27 19 13 10 8 7 7 6 5 4 4 4 4 4 4 4 3 3 3 3 3 2 1 0 0 0 0 0 0 0 0 0 0 0 0 0 0 0 0 0 0
Wind_Speed
6 7 15 15 15 16 16 16 16 17 17 17 17 17 17 16 16 16 15 15 15 15 15 15 15 16 16 16 15 15 14 14 13 13 14 14 13 13 14 15 13 11 15
10 10 16 16 16 16 16 16 16 16 17 17 17 16 16 16 15 15 15 15 15 15 15 15 15 15 15 15 15 14 14 14 13 14 14 13 13 13 13 14 13 10 14
13 10 13 16 16 16 16 16 16 16 16 16 16 16 16 15 15 15 14 14 14 14 15 15 15 15 15 15 14 14 14 13 14 14 12 8 9 12 13 14 14 14 14
13 9 12 17 17 16 16 16 16 16 16 16 16 15 15 15 14 14 14 14 14 14 15 15 15 15 15 14 14 13 13 13 14 13 7 6 7 12 13 13 13 14 14
11 9 12 18 17 17 16 15 15 15 15 15 15 15 14 14 14 14 13 13 14 14 14 14 14 14 13 13 13 12 12 13 13 10 7 6 6 11 13 13 13 13 13
10 8 12 18 17 16 16 15 15 15 14 14 14 14 13 13 13 13 13 13 13 13 14 14 13 13 12 11 11 11 12 12 11 7 7 6 6 10 12 13 13 13 13
11 8 11 18 17 16 16 15 15 14 14 13 13 13 13 13 13 13 13 13 12 13 13 13 12 11 10 10 10 11 11 12 8 7 6 5 6 10 11 12 12 12 12
11 9 10 17 17 16 15 15 14 14 13 13 13 13 12 12 12 12 12 12 12 12 12 12 11 10 9 9 9 10 11 11 8 7 6 5 7 10 11 11 11 12 11
9 8 7 9 12 15 15 14 14 14 13 13 12 12 12 12 11 11 11 11 11 11 11 11 10 10 9 9 9 10 11 12 7 5 6 4 7 9 10 10 11 11 11
8 7 6 7 7 7 8 13 14 14 13 12 12 12 12 11 10 10 9 9 10 10 10 9 9 9 8 8 8 9 11 10 6 5 4 4 8 9 10 10 10 10 10
10 6 6 6 6 6 6 10 11 12 12 11 9 11 9 5 5 5 7 8 9 8 8 8 8 8 7 7 8 9 9 4 5 3 3 6 8 8 9 9 9 10 9
13 9 7 7 7 6 6 5 4 4 5 4 4 5 4 3 3 4 5 7 7 7 7 7 7 8 6 3 5 7 3 5 4 3 3 6 7 8 9 9 9 9 9
13 12 9 8 7 6 4 4 3 3 3 4 5 5 4 3 2 3 2 2 3 4 4 5 5 3 3 2 2 3 3 3 2 2 3 6 6 8 8 8 8 8 8
12 12 10 8 7 6 5 4 4 3 3 3 4 5 4 2 2 2 1 2 2 2 3 3 2 2 3 3 3 4 4 2 2 2 2 5 6 7 7 7 7 7 8
12 12 11 9 8 6 5 4 5 4 4 4 3 4 4 3 3 2 1 2 2 2 2 2 2 2 3 2 3 4 4 3 3 2 1 4 5 5 6 6 6 7 7
13 12 11 10 8 7 5 4 4 4 4 4 3 4 4 3 3 3 2 2 1 1 2 2 2 2 2 2 2 3 3 3 3 2 1 1 3 4 5 5 6 6 6
13 12 11 11 9 8 7 6 5 4 4 4 4 4 4 4 4 3 2 2 1 2 2 2 3 3 2 2 2 2 2 2 2 2 2 1 1 2 4 4 5 5 6
11 12 12 12 10 9 7 6 4 4 5 4 3 4 5 5 5 4 3 2 2 2 2 3 2 2 2 2 2 1 1 1 2 2 2 1 1 0 1 3 3 4 4
13 13 13 10 11 10 8 6 5 4 4 4 3 3 4 5 5 4 3 2 3 2 2 2 2 2 2 2 2 2 2 1 1 1 2 2 1 1 0 1 1 2 3
11 11 12 11 10 9 6 5 4 4 3 3 3 4 5 5 6 5 3 3 4 3 2 2 3 2 2 2 2 3 2 2 1 0 1 1 1 2 1 1 0 0 1
10 11 12 11 10 9 7 6 5 5 4 4 4 5 5 5 6 5 4 4 4 3 3 4 3 3 2 2 3 3 3 2 2 1 0 0 1 1 2 1 1 1 0
13 12 12 12 11 10 8 6 4 4 3 3 3 4 5 6 6 6 5 4 4 3 4 4 3 3 2 2 3 2 2 2 2 2 1 1 1 1 2 2 2 2 1
13 13 12 12 11 10 8 5 4 3 3 3 3 3 4 6 6 5 6 5 4 4 4 4 4 4 3 1 1 3 3 2 1 2 1 1 0 1 1 1 2 2 2
13 12 11 12 11 10 10 9 10 7 6 6 4 4 4 5 6 6 6 6 5 4 4 4 4 3 4 3 1 1 1 3 2 0 1 1 1 0 1 1 1 2 2
12 12 11 11 11 10 10 11 10 7 5 4 4 5 4 4 5 6 6 6 5 4 5 4 4 4 3 4 3 2 2 2 2 2 1 1 1 1 0 1 1 1 1
10 11 11 12 12 11 11 11 10 10 8 8 7 6 5 3 3 5 6 5 5 4 5 5 5 5 4 4 3 3 3 3 3 3 2 1 1 1 1 1 1 2 2
Wind_Direction
152 154 144 136 127 122 119 115 112 111 109 109 110 110 110 110 109 109 107 106 107 106 106 105 106 107 107 107 107 107 108 110 112 114 113 110 110 109 108 107 106 106 109
144 149 145 138 132 126 122 118 115 113 111 111 111 111 111 111 110 109 108 107 108 108 108 107 108 110 110 109 108 108 109 110 110 112 112 110 110 109 110 110 110 112 112
140 145 144 140 134 129 125 122 119 117 115 114 113 113 113 113 112 111 110 109 109 109 109 108 108 109 110 110 109 108 107 107 108 106 102 100 108 112 114 113 113 114 113
140 142 144 142 137 132 129 125 123 120 118 117 115 115 115 115 115 113 111 110 110 111 110 111 111 111 112 112 111 109 109 108 107 103 92 96 106 113 114 114 114 113 113
137 138 147 144 140 136 132 129 126 124 122 120 118 116 116 116 116 115 113 112 111 111 111 111 112 112 114 114 114 113 112 112 106 97 88 86 95 113 114 113 112 112 112
137 140 150 146 143 139 136 134 131 128 126 123 121 119 119 117 117 115 113 113 112 111 111 111 111 112 113 114 115 118 116 112 102 96 94 95 102 115 115 114 112 112 112
140 143 151 148 147 144 142 139 135 132 130 128 125 123 122 119 119 117 115 113 112 111 111 111 111 112 111 111 114 118 121 119 107 100 97 99 108 114 115 115 114 114 113
144 145 151 152 150 149 147 144 141 138 136 134 131 128 126 124 122 119 115 114 113 112 112 112 111 109 108 110 113 118 121 124 117 112 104 104 115 115 116 116 116 117 116
143 144 148 151 153 154 151 149 146 143 141 138 136 133 131 129 126 122 118 116 114 113 113 113 111 109 107 108 112 119 123 122 114 116 117 110 120 121 122 121 120 119 118
144 146 146 142 142 146 151 154 151 148 145 143 142 139 136 133 130 127 121 121 119 116 114 113 110 106 105 109 116 120 121 116 110 110 110 129 131 129 128 126 124 121 120
157 153 147 141 137 138 147 160 155 152 151 147 145 142 131 107 107 118 129 129 124 120 115 110 107 102 98 101 113 117 111 111 115 112 118 139 139 136 133 131 129 124 122
168 165 155 148 147 146 158 145 135 135 136 126 119 117 102 100 110 119 137 133 127 119 112 106 100 94 84 75 95 101 100 117 115 119 136 147 145 141 140 137 134 132 130
169 169 163 157 154 152 143 136 125 118 118 118 120 116 111 101 96 91 86 95 87 90 76 76 79 79 86 91 96 101 113 118 117 123 141 151 148 145 144 143 140 140 139
170 173 165 161 158 157 146 144 137 134 133 133 133 130 125 118 110 107 92 89 79 75 80 73 72 78 89 106 121 120 119 119 118 112 143 157 158 156 151 150 152 152 150
175 174 171 167 166 159 149 155 152 148 148 146 142 145 144 140 143 134 119 103 96 89 92 93 88 92 93 99 117 123 130 133 129 125 138 169 167 164 162 164 164 161 158
179 177 173 173 169 162 161 160 154 155 151 149 156 161 157 152 153 147 138 127 115 105 103 106 111 106 96 100 108 120 131 132 130 129 114 158 170 174 177 177 176 175 171
179 175 176 176 170 169 166 169 162 161 156 162 168 165 162 161 160 153 151 159 156 124 114 98 91 85 94 94 94 104 116 130 138 136 125 108 160 197 193 191 190 188 186
176 175 179 183 177 175 171 170 163 164 162 167 169 165 168 168 163 156 161 173 150 127 118 113 104 89 81 90 94 86 91 106 135 144 145 152 151 199 224 215 207 200 197
182 178 179 182 178 178 173 167 164 161 164 165 166 167 171 170 167 162 167 165 147 136 132 137 109 114 117 112 105 80 67 81 108 155 165 170 168 171 193 260 240 214 208
183 179 179 180 178 174 165 153 150 154 162 162 170 175 171 169 166 161 163 160 150 139 137 128 116 99 108 118 95 72 46 40 62 88 203 174 176 181 177 189 9 114 175
184 181 180 181 177 170 170 171 169 175 171 168 177 177 174 169 165 162 163 155 155 155 157 141 121 111 102 111 91 62 33 36 50 37 32 161 180 184 170 177 175 174 227
185 185 182 184 181 177 179 174 167 153 157 164 169 173 175 172 169 170 162 162 160 151 145 146 135 125 117 122 121 106 49 7 9 24 33 177 184 159 176 182 181 189 201
186 184 187 187 181 178 170 153 138 119 114 145 167 177 182 175 173 169 168 164 165 161 166 170 156 146 143 127 123 139 145 198 312 355 12 38 84 147 185 168 187 192 190
189 185 186 183 179 176 169 169 167 171 175 180 172 174 173 175 173 171 169 167 167 167 170 178 164 155 144 149 129 98 128 147 145 88 358 13 13 191 210 201 194 192 184
183 185 183 178 180 178 178 178 176 176 171 154 152 161 171 174 176 175 171 168 169 170 176 173 162 162 155 155 157 148 121 91 107 137 178 330 2 354 231 217 214 212 197
177 181 179 179 183 182 182 180 180 175 167 161 168 171 173 170 175 179 172 171 172 173 178 178 171 167 165 157 161 161 157 155 163 153 163 194 248 320 311 246 224 224 220